Preview of NWS' New Version of Forecast
This preview is not operational and should not be used for support decisions.

Regional Weather Roundup (RWR)

Issued by National Weather Service (NWS)

                            
000
ASUS46 KSEW 160010
RWRWA 

WASHINGTON REGIONAL WEATHER ROUNDUP
NATIONAL WEATHER SERVICE SEATTLE WA
400 PM PST FRI FEB 15 2019

NOTE:"FAIR" INDICATES FEW OR NO CLOUDS BELOW 12,000 FEET WITH NO 
SIGNIFICANT WEATHER AND/OR OBSTRUCTIONS TO VISIBILITY.

WAZ507-509-555>559-160100-
SEATTLE, TACOMA, EVERETT, AND VICINITY
  
CITY           SKY/WX    TMP DP  RH WIND       PRES   REMARKS
EVERETT        PTSUNNY   45  36  70 SE13      29.66R                  
6HR MIN TEMP:  40; 6HR MAX TEMP:  45;                                

BOEING FIELD   MOSUNNY   46  35  65 SW7       29.68R                  
6HR MIN TEMP:  40; 6HR MAX TEMP:  46; 6HR PCP: TRACE;                

RENTON         MOSUNNY   48  37  65 SW6       29.68R                  
6HR MIN TEMP:  42; 6HR MAX TEMP:  49; 6HR PCP: TRACE;                

SEATAC AIRPORT PTSUNNY   47  36  65 SW7       29.67R                  
6HR MIN TEMP:  43; 6HR MAX TEMP:  47;                                

JBLM-MCCHORD   MOSUNNY   46  43  90 SW8       29.68R                  
6HR MIN TEMP:  40; 6HR MAX TEMP:  46; 6HR PCP: TRACE;                

PUYALLUP       PTSUNNY   45  37  76 SW5       29.68R                  
BREMERTON      PTSUNNY   41  36  82 S8        29.67R                  
6HR MIN TEMP:  38; 6HR MAX TEMP:  42; 6HR PCP:  0.01;                

JBLM-FT LEWIS  MOSUNNY   46  42  84 S9        29.67R                  
6HR MIN TEMP:  41; 6HR MAX TEMP:  46; 6HR PCP: TRACE;                

TACOMA NARROWS PTSUNNY   45  36  70 SW10G17   29.68R                  
6HR MIN TEMP:  41; 6HR MAX TEMP:  46; 6HR PCP: TRACE;                

$$
 
WAZ001-503-506-510-514-515-160100-
NORTH INTERIOR
  
CITY           SKY/WX    TMP DP  RH WIND       PRES   REMARKS
BELLINGHAM     CLOUDY    38  32  79 N7        29.67R                  
6HR MIN TEMP:  37; 6HR MAX TEMP:  44; 6HR PCP: TRACE;                

FRIDAY HARBOR  PTSUNNY   44  37  76 SE7       29.67R                  
6HR MIN TEMP:  43; 6HR MAX TEMP:  47; 6HR PCP: TRACE;                

EASTSOUND      CLOUDY    43  41  93 CALM      29.65R                  
PORT ANGELES   PTSUNNY   44  37  76 NE3       29.65R                  
6HR MIN TEMP:  36; 6HR MAX TEMP:  45; 6HR PCP: TRACE;                

EDIZ HOOK      FAIR      44  40  85 CALM      29.65R                  
6HR MIN TEMP:  41; 6HR MAX TEMP:  44;                                

PORT TOWNSEND  CLOUDY    45  39  81 CALM      29.65R                  
NAS WHIDBEY    CLOUDY    48  36  63 SE14      29.70R                  
6HR MIN TEMP:  47; 6HR MAX TEMP:  51;                                

ARLINGTON      CLOUDY    43  36  75 SE8       29.68R                  
6HR MIN TEMP:  40; 6HR MAX TEMP:  43;                                

BURLINGTON       N/A    N/A N/A N/A MISG        N/A                   
$$
 
WAZ020-022-039-040-504-511-512-160100-
SOUTHWEST INTERIOR
  
CITY           SKY/WX    TMP DP  RH WIND       PRES   REMARKS
SHELTON        CLOUDY    43  38  82 CALM      29.65R                  
6HR MIN TEMP:  38; 6HR MAX TEMP:  45; 6HR PCP:  0.04;                

OLYMPIA        MOSUNNY   43  34  70 S6        29.68R                  
6HR MIN TEMP:  38; 6HR MAX TEMP:  43; 6HR PCP:  0.06;                

CHEHALIS       FAIR      45  39  81 S7        29.67S                  
KELSO          LGT RAIN  44  40  85 VRB7      29.68S                  
6HR MIN TEMP:  41; 6HR MAX TEMP:  47; 6HR PCP:  0.02;                

VANCOUVER      CLOUDY    44  37  76 E8        29.67S                  
6HR MIN TEMP:  41; 6HR MAX TEMP:  49; 6HR PCP:  0.01;                

SCAPPOOSE, OR  CLOUDY    47  39  74 SE5       29.66S                  
6HR MIN TEMP:  43; 6HR MAX TEMP:  50; 6HR PCP:  0.01;                

PORTLAND, OR   CLOUDY    42  37  82 E10       29.68R                  
6HR MIN TEMP:  40; 6HR MAX TEMP:  49; 6HR PCP:  0.02;                

$$
 
WAZ021-516-517-160100-
WASHINGTON COAST
  
CITY           SKY/WX    TMP DP  RH WIND       PRES   REMARKS
FORKS          LGT RAIN  44  30  57 VRB5      29.64R                  
6HR MIN TEMP:  40; 6HR MAX TEMP:  47; 6HR PCP: TRACE;                

HOQUIAM        PTSUNNY   47  40  76 NE7       29.64R                  
6HR MIN TEMP:  42; 6HR MAX TEMP:  48; 6HR PCP: TRACE;                

ASTORIA, OR    LGT RAIN  45  40  82 E9        29.62R                  
6HR MIN TEMP:  41; 6HR MAX TEMP:  48; 6HR PCP:  0.02;                

$$
 
WAZ019-023-024-040-567>569-160100-
CASCADE MOUNTAINS AND COLUMBIA GORGE
  
CITY           SKY/WX    TMP DP  RH WIND       PRES   REMARKS
STAMPEDE PASS  FOG       31  28  89 CALM      29.58R VSB 1/2          
6HR MIN TEMP:  26; 6HR MAX TEMP:  33; 6HR PCP:  0.01;                

TROUTDALE, OR  CLOUDY    42  36  79 E8        29.68S                  
6HR MIN TEMP:  37; 6HR MAX TEMP:  43; 6HR PCP:  0.01;                

HOOD RIVER, OR MOCLDY    34  32  93 W5        29.72S                  
THE DALLES, OR PTSUNNY   32  27  81 CALM      29.74F                  
6HR MIN TEMP:  28; 6HR MAX TEMP:  36;                                

$$

WAZ026-027-041>044-520-521-160100-
EAST SLOPES
  
CITY           SKY/WX    TMP DP  RH WIND       PRES   REMARKS
OMAK           CLOUDY    32  28  85 CALM      29.68R                  
6HR MIN TEMP:  25; 6HR MAX TEMP:  32; 6HR PCP: TRACE;                

WENATCHEE      MOSUNNY   32  27  81 E5        29.67R                  
6HR MIN TEMP:  27; 6HR MAX TEMP:  32;                                

ELLENSBURG     CLOUDY    36  26  67 N3        29.67R                  
6HR MIN TEMP:  32; 6HR MAX TEMP:  36;                                

YAKIMA         CLOUDY    33  28  81 E3        29.70R                  
6HR MIN TEMP:  30; 6HR MAX TEMP:  34;                                

SUNNYSIDE ARPT CLOUDY    32  29  90 SW3       29.72                   
6HR MIN TEMP:  27; 6HR MAX TEMP:  32;                                

YAKIMA TC      CLOUDY    33  27  79 CALM      29.67R                  
6HR MIN TEMP:  31; 6HR MAX TEMP:  34;                                

$$

WAZ028-034-035-160100-
COLUMBIA BASIN
  
CITY           SKY/WX    TMP DP  RH WIND       PRES   REMARKS
EPHRATA        PTSUNNY   31  27  85 S6        29.68R                  
6HR MIN TEMP:  31; 6HR MAX TEMP:  33; 6HR PCP: TRACE;                

MOSES LAKE     CLOUDY    32  29  88 SW5       29.70R                  
6HR MIN TEMP:  30; 6HR MAX TEMP:  32; 6HR PCP:  0.01;                

PASCO          PTSUNNY   33  27  78 NE3       29.75R                  
6HR MIN TEMP:  25; 6HR MAX TEMP:  37;                                

RICHLAND ARPT  PTCLDY    33  31  90 CALM      29.75                   
6HR MIN TEMP:  31; 6HR MAX TEMP:  37;                                

HERMISTON, OR  MOSUNNY   35  29  78 E3        29.72R                  
6HR MIN TEMP:  33; 6HR MAX TEMP:  36;                                

$$

WAZ036>038-160100-
NORTHEAST WASHINGTON
  
CITY           SKY/WX    TMP DP  RH WIND       PRES   REMARKS
SPOKANE GEIGER FLURRIES  31  27  85 SW12      29.65R WCI  22          
6HR MIN TEMP:  30; 6HR MAX TEMP:  33; 6HR PCP:  0.18;                

SPOKANE FELTS  CLOUDY    34  30  85 SW14      29.66R FOG     WCI  25  
6HR MIN TEMP:  32; 6HR MAX TEMP:  35; 6HR PCP:  0.12;                

FAIRCHILD AFB  CLOUDY    29  29 100 SW9       29.63R                  
6HR MIN TEMP:  29; 6HR MAX TEMP:  32; 6HR PCP:  0.13;                

COEURDALENE,ID LGT SNOW  33  31  92 S5        29.65R FOG              
6HR MIN TEMP:  33; 6HR MAX TEMP:  35; 6HR PCP:  0.16;                

DEER PARK      CLOUDY    32  30  92 S8        29.64R                  
6HR MIN TEMP:  31; 6HR MAX TEMP:  33; 6HR PCP:  0.13;                

$$

WAZ029>033-160100-
SOUTHEAST WASHINGTON
  
CITY           SKY/WX    TMP DP  RH WIND       PRES   REMARKS
PULLMAN        PTSUNNY   29  27  92 CALM      29.68R                  
6HR MIN TEMP:  29; 6HR MAX TEMP:  32; 6HR PCP:  0.02;                

LEWISTON, ID   CLOUDY    39  34  82 CALM      29.70R                  
6HR MIN TEMP:  34; 6HR MAX TEMP:  41; 6HR PCP:  0.01;                

WALLA WALLA    MOSUNNY   36  30  79 SE7       29.70S                  
6HR MIN TEMP:  32; 6HR MAX TEMP:  37;                                

PENDLETON, OR  MOSUNNY   30  29  96 SE3       29.69R                  
6HR MIN TEMP:  29; 6HR MAX TEMP:  35;                                

$$